Time,TemperatureF,DewpointF,PressureIn,WindDirection,WindDirectionDegrees,WindSpeedMPH,WindSpeedGustMPH,Humidity,HourlyPrecipIn,Conditions,Clouds,dailyrainin,SoftwareType,DateUTC
2013-11-03 00:03:00,-999.0,-99.9,-100.00,NNW,340,18.0,22.0,-999,-99.99,,,-99.99,,2013-11-03 04:03:00,
2013-11-03 00:14:00,61.0,-99.9,-100.00,NNW,340,18.0,22.0,-999,-99.99,,,-99.99,,2013-11-03 04:14:00,
2013-11-03 00:23:00,61.0,-99.9,-100.00,NNW,340,18.0,22.0,-999,-99.99,,,-99.99,,2013-11-03 04:23:00,
2013-11-03 00:34:00,61.0,-99.9,-100.00,NNW,340,18.0,22.0,-999,-99.99,,,-99.99,,2013-11-03 04:34:00,
2013-11-03 00:40:00,60.0,-99.9,-100.00,NW,320,10.0,16.0,-999,-99.99,,,-99.99,,2013-11-03 04:40:00,
2013-11-03 01:13:00,60.0,-99.9,-100.00,NW,320,10.0,16.0,-999,-99.99,,,-99.99,,2013-11-03 05:13:00,
2013-11-03 01:23:00,60.0,-99.9,-100.00,NW,320,10.0,16.0,-999,-99.99,,,-99.99,,2013-11-03 05:23:00,
2013-11-03 01:34:00,60.0,-99.9,-100.00,NW,320,10.0,16.0,-999,-99.99,,,-99.99,,2013-11-03 05:34:00,
2013-11-03 01:40:00,56.0,-99.9,-100.00,NNE,30,8.0,10.0,-999,-99.99,,,-99.99,,2013-11-03 05:40:00,
2013-11-03 01:13:00,56.0,-99.9,-100.00,NNE,30,8.0,10.0,-999,-99.99,,,-99.99,,2013-11-03 06:13:00,
2013-11-03 01:23:00,56.0,-99.9,-100.00,NNE,30,8.0,10.0,-999,-99.99,,,-99.99,,2013-11-03 06:23:00,
2013-11-03 01:32:00,56.0,-99.9,-100.00,NNE,30,8.0,10.0,-999,-99.99,,,-99.99,,2013-11-03 06:32:00,
2013-11-03 01:40:00,55.0,-99.9,-100.00,North,10,13.0,15.0,-999,-99.99,,,-99.99,,2013-11-03 06:40:00,
2013-11-03 02:11:00,55.0,-99.9,-100.00,North,10,13.0,15.0,-999,-99.99,,,-99.99,,2013-11-03 07:11:00,
2013-11-03 02:22:00,55.0,-99.9,-100.00,North,10,13.0,15.0,-999,-99.99,,,-99.99,,2013-11-03 07:22:00,
2013-11-03 02:32:00,55.0,-99.9,-100.00,North,10,13.0,15.0,-999,-99.99,,,-99.99,,2013-11-03 07:32:00,
2013-11-03 02:40:00,55.0,-99.9,-100.00,North,350,10.0,13.0,-999,-99.99,,,-99.99,,2013-11-03 07:40:00,
2013-11-03 03:11:00,55.0,-99.9,-100.00,North,350,10.0,13.0,-999,-99.99,,,-99.99,,2013-11-03 08:11:00,
2013-11-03 03:21:00,55.0,-99.9,-100.00,North,350,10.0,13.0,-999,-99.99,,,-99.99,,2013-11-03 08:21:00,
2013-11-03 03:32:00,55.0,-99.9,-100.00,North,350,10.0,13.0,-999,-99.99,,,-99.99,,2013-11-03 08:32:00,
2013-11-03 04:12:00,55.0,-99.9,-100.00,North,350,11.0,15.0,-999,-99.99,,,-99.99,,2013-11-03 09:12:00,
2013-11-03 04:22:00,55.0,-99.9,-100.00,North,350,11.0,15.0,-999,-99.99,,,-99.99,,2013-11-03 09:22:00,
2013-11-03 04:33:00,55.0,-99.9,-100.00,North,350,11.0,15.0,-999,-99.99,,,-99.99,,2013-11-03 09:33:00,
2013-11-03 05:13:00,54.0,-99.9,-100.00,North,350,10.0,14.0,-999,-99.99,,,-99.99,,2013-11-03 10:13:00,
2013-11-03 05:23:00,54.0,-99.9,-100.00,North,350,10.0,14.0,-999,-99.99,,,-99.99,,2013-11-03 10:23:00,
2013-11-03 05:33:00,54.0,-99.9,-100.00,North,350,10.0,14.0,-999,-99.99,,,-99.99,,2013-11-03 10:33:00,
2013-11-03 05:40:00,51.0,-99.9,-100.00,North,10,8.0,10.0,-999,-99.99,,,-99.99,,2013-11-03 10:40:00,
2013-11-03 06:12:00,51.0,-99.9,-100.00,North,10,8.0,10.0,-999,-99.99,,,-99.99,,2013-11-03 11:12:00,
2013-11-03 06:22:00,51.0,-99.9,-100.00,North,10,8.0,10.0,-999,-99.99,,,-99.99,,2013-11-03 11:22:00,
2013-11-03 06:33:00,51.0,-99.9,-100.00,North,10,8.0,10.0,-999,-99.99,,,-99.99,,2013-11-03 11:33:00,
2013-11-03 06:40:00,49.0,-99.9,-100.00,NNE,20,6.0,9.0,-999,-99.99,,,-99.99,,2013-11-03 11:40:00,
2013-11-03 07:12:00,49.0,-99.9,-100.00,NNE,20,6.0,9.0,-999,-99.99,,,-99.99,,2013-11-03 12:12:00,
2013-11-03 07:22:00,49.0,-99.9,-100.00,NNE,20,6.0,9.0,-999,-99.99,,,-99.99,,2013-11-03 12:22:00,
2013-11-03 07:32:00,49.0,-99.9,-100.00,NNE,20,6.0,9.0,-999,-99.99,,,-99.99,,2013-11-03 12:32:00,
2013-11-03 07:40:00,50.0,-99.9,-100.00,North,10,6.0,8.0,-999,-99.99,,,-99.99,,2013-11-03 12:40:00,
2013-11-03 08:12:00,50.0,-99.9,-100.00,North,10,6.0,8.0,-999,-99.99,,,-99.99,,2013-11-03 13:12:00,
2013-11-03 08:22:00,50.0,-99.9,-100.00,North,10,6.0,8.0,-999,-99.99,,,-99.99,,2013-11-03 13:22:00,
2013-11-03 08:32:00,50.0,-99.9,-100.00,North,10,6.0,8.0,-999,-99.99,,,-99.99,,2013-11-03 13:32:00,
2013-11-03 08:40:00,53.0,-99.9,-100.00,North,360,9.0,11.0,-999,-99.99,,,-99.99,,2013-11-03 13:40:00,
2013-11-03 09:12:00,53.0,-99.9,-100.00,North,360,9.0,11.0,-999,-99.99,,,-99.99,,2013-11-03 14:12:00,
2013-11-03 09:23:00,53.0,-99.9,-100.00,North,360,9.0,11.0,-999,-99.99,,,-99.99,,2013-11-03 14:23:00,
2013-11-03 09:32:00,53.0,-99.9,-100.00,North,360,9.0,11.0,-999,-99.99,,,-99.99,,2013-11-03 14:32:00,
2013-11-03 09:40:00,55.0,-99.9,-100.00,NNE,30,11.0,15.0,-999,-99.99,,,-99.99,,2013-11-03 14:40:00,
2013-11-03 10:11:00,55.0,-99.9,-100.00,NNE,30,11.0,15.0,-999,-99.99,,,-99.99,,2013-11-03 15:11:00,
2013-11-03 10:22:00,55.0,-99.9,-100.00,NNE,30,11.0,15.0,-999,-99.99,,,-99.99,,2013-11-03 15:22:00,
2013-11-03 10:33:00,55.0,-99.9,-100.00,NNE,30,11.0,15.0,-999,-99.99,,,-99.99,,2013-11-03 15:33:00,
2013-11-03 10:40:00,58.0,-99.9,-100.00,NE,40,10.0,15.0,-999,-99.99,,,-99.99,,2013-11-03 15:40:00,
2013-11-03 11:14:00,58.0,-99.9,-100.00,NE,40,10.0,15.0,-999,-99.99,,,-99.99,,2013-11-03 16:14:00,
2013-11-03 11:23:00,58.0,-99.9,-100.00,NE,40,10.0,15.0,-999,-99.99,,,-99.99,,2013-11-03 16:23:00,
2013-11-03 11:34:00,58.0,-99.9,-100.00,NE,40,10.0,15.0,-999,-99.99,,,-99.99,,2013-11-03 16:34:00,
2013-11-03 11:40:00,60.0,-99.9,-100.00,SSE,160,6.0,13.0,-999,-99.99,,,-99.99,,2013-11-03 16:40:00,
2013-11-03 12:13:00,60.0,-99.9,-100.00,SSE,160,6.0,13.0,-999,-99.99,,,-99.99,,2013-11-03 17:13:00,
2013-11-03 12:23:00,60.0,-99.9,-100.00,SSE,160,6.0,13.0,-999,-99.99,,,-99.99,,2013-11-03 17:23:00,
2013-11-03 12:33:00,60.0,-99.9,-100.00,SSE,160,6.0,13.0,-999,-99.99,,,-99.99,,2013-11-03 17:33:00,
2013-11-03 12:40:00,62.0,-99.9,-100.00,East,100,2.0,7.0,-999,-99.99,,,-99.99,,2013-11-03 17:40:00,
2013-11-03 13:12:00,62.0,-99.9,-100.00,East,100,2.0,7.0,-999,-99.99,,,-99.99,,2013-11-03 18:12:00,
2013-11-03 13:23:00,62.0,-99.9,-100.00,East,100,2.0,7.0,-999,-99.99,,,-99.99,,2013-11-03 18:23:00,
2013-11-03 13:32:00,62.0,-99.9,-100.00,East,100,2.0,7.0,-999,-99.99,,,-99.99,,2013-11-03 18:32:00,
2013-11-03 13:40:00,62.0,-99.9,-100.00,NNE,20,6.0,9.0,-999,-99.99,,,-99.99,,2013-11-03 18:40:00,
2013-11-03 14:11:00,62.0,-99.9,-100.00,NNE,20,6.0,9.0,-999,-99.99,,,-99.99,,2013-11-03 19:11:00,
2013-11-03 14:22:00,62.0,-99.9,-100.00,NNE,20,6.0,9.0,-999,-99.99,,,-99.99,,2013-11-03 19:22:00,
2013-11-03 14:33:00,62.0,-99.9,-100.00,NNE,20,6.0,9.0,-999,-99.99,,,-99.99,,2013-11-03 19:33:00,
2013-11-03 14:40:00,64.0,-99.9,-100.00,WNW,290,6.0,8.0,-999,-99.99,,,-99.99,,2013-11-03 19:40:00,
2013-11-03 15:11:00,64.0,-99.9,-100.00,WNW,290,6.0,8.0,-999,-99.99,,,-99.99,,2013-11-03 20:11:00,
2013-11-03 15:22:00,64.0,-99.9,-100.00,WNW,290,6.0,8.0,-999,-99.99,,,-99.99,,2013-11-03 20:22:00,
2013-11-03 15:32:00,64.0,-99.9,-100.00,WNW,290,6.0,8.0,-999,-99.99,,,-99.99,,2013-11-03 20:32:00,
2013-11-03 15:40:00,65.0,-99.9,-100.00,WNW,290,7.0,9.0,-999,-99.99,,,-99.99,,2013-11-03 20:40:00,
2013-11-03 16:12:00,65.0,-99.9,-100.00,WNW,290,7.0,9.0,-999,-99.99,,,-99.99,,2013-11-03 21:12:00,
2013-11-03 16:22:00,65.0,-99.9,-100.00,WNW,290,7.0,9.0,-999,-99.99,,,-99.99,,2013-11-03 21:22:00,
2013-11-03 16:34:00,65.0,-99.9,-100.00,WNW,290,7.0,9.0,-999,-99.99,,,-99.99,,2013-11-03 21:34:00,
2013-11-03 16:40:00,66.0,-99.9,-100.00,ENE,60,3.0,7.0,-999,-99.99,,,-99.99,,2013-11-03 21:40:00,
2013-11-03 17:13:00,66.0,-99.9,-100.00,ENE,60,3.0,7.0,-999,-99.99,,,-99.99,,2013-11-03 22:13:00,
2013-11-03 17:23:00,66.0,-99.9,-100.00,ENE,60,3.0,7.0,-999,-99.99,,,-99.99,,2013-11-03 22:23:00,
2013-11-03 17:34:00,66.0,-99.9,-100.00,ENE,60,3.0,7.0,-999,-99.99,,,-99.99,,2013-11-03 22:34:00,
2013-11-03 17:40:00,62.0,-99.9,-100.00,NE,40,3.0,6.0,-999,-99.99,,,-99.99,,2013-11-03 22:40:00,
2013-11-03 18:12:00,62.0,-99.9,-100.00,NE,40,3.0,6.0,-999,-99.99,,,-99.99,,2013-11-03 23:12:00,
2013-11-03 18:23:00,62.0,-99.9,-100.00,NE,40,3.0,6.0,-999,-99.99,,,-99.99,,2013-11-03 23:23:00,
2013-11-03 18:34:00,62.0,-99.9,-100.00,NE,40,3.0,6.0,-999,-99.99,,,-99.99,,2013-11-03 23:34:00,
2013-11-03 18:40:00,60.0,-99.9,-100.00,NE,50,6.0,8.0,-999,-99.99,,,-99.99,,2013-11-03 23:40:00,
2013-11-03 19:11:00,60.0,-99.9,-100.00,NE,50,6.0,8.0,-999,-99.99,,,-99.99,,2013-11-04 00:11:00,
2013-11-03 19:22:00,60.0,-99.9,-100.00,NE,50,6.0,8.0,-999,-99.99,,,-99.99,,2013-11-04 00:22:00,
2013-11-03 19:32:00,60.0,-99.9,-100.00,NE,50,6.0,8.0,-999,-99.99,,,-99.99,,2013-11-04 00:32:00,
2013-11-03 19:40:00,58.0,-99.9,-100.00,East,80,2.0,7.0,-999,-99.99,,,-99.99,,2013-11-04 00:40:00,
2013-11-03 20:11:00,58.0,-99.9,-100.00,East,80,2.0,7.0,-999,-99.99,,,-99.99,,2013-11-04 01:11:00,
2013-11-03 20:22:00,58.0,-99.9,-100.00,East,80,2.0,7.0,-999,-99.99,,,-99.99,,2013-11-04 01:22:00,
2013-11-03 20:32:00,58.0,-99.9,-100.00,East,80,2.0,7.0,-999,-99.99,,,-99.99,,2013-11-04 01:32:00,
2013-11-03 20:40:00,56.0,-99.9,-100.00,ENE,70,5.0,10.0,-999,-99.99,,,-99.99,,2013-11-04 01:40:00,
2013-11-03 21:12:00,56.0,-99.9,-100.00,ENE,70,5.0,10.0,-999,-99.99,,,-99.99,,2013-11-04 02:12:00,
2013-11-03 21:22:00,56.0,-99.9,-100.00,ENE,70,5.0,10.0,-999,-99.99,,,-99.99,,2013-11-04 02:22:00,
2013-11-03 21:32:00,56.0,-99.9,-100.00,ENE,70,5.0,10.0,-999,-99.99,,,-99.99,,2013-11-04 02:32:00,
2013-11-03 21:40:00,56.0,-99.9,-100.00,ENE,60,5.0,9.0,-999,-99.99,,,-99.99,,2013-11-04 02:40:00,
2013-11-03 22:12:00,56.0,-99.9,-100.00,ENE,60,5.0,9.0,-999,-99.99,,,-99.99,,2013-11-04 03:12:00,
2013-11-03 22:22:00,56.0,-99.9,-100.00,ENE,60,5.0,9.0,-999,-99.99,,,-99.99,,2013-11-04 03:22:00,
2013-11-03 22:34:00,56.0,-99.9,-100.00,ENE,60,5.0,9.0,-999,-99.99,,,-99.99,,2013-11-04 03:34:00,
2013-11-03 22:40:00,53.0,-99.9,-100.00,ENE,70,3.0,9.0,-999,-99.99,,,-99.99,,2013-11-04 03:40:00,
2013-11-03 23:13:00,53.0,-99.9,-100.00,ENE,70,3.0,9.0,-999,-99.99,,,-99.99,,2013-11-04 04:13:00,
2013-11-03 23:24:00,53.0,-99.9,-100.00,ENE,70,3.0,9.0,-999,-99.99,,,-99.99,,2013-11-04 04:24:00,
2013-11-03 23:34:00,53.0,-99.9,-100.00,ENE,70,3.0,9.0,-999,-99.99,,,-99.99,,2013-11-04 04:34:00,
2013-11-03 23:40:00,52.0,-99.9,-100.00,East,90,1.0,9.0,-999,-99.99,,,-99.99,,2013-11-04 04:40:00,